星链-5013 (STARLINK-5013 )

导读

STARLINK-5013是美国SpaceX公司星链(Starlink)项目中的一颗卫星,于2023年2月2日发射升空。星链项目旨在打造全球卫星互联网星座,为全球用户提供高速互联网接入服务,该卫星的成功发射进一步扩充了星链星座的卫星规模,提升了星座服务覆盖能力与网络容量。

基本信息
目录编号:
55492
目录名称:
STARLINK-5013
国际标识:
2023-015AV
轨道中心:
EARTH
卫星名称:
星链-5013
卫星全名:
星链-5013 (STARLINK-5013 )
卫星状态:
在轨 (已飞行1318 天)
发射日期:
2023-02-02 UTC
国别 :
美国 (US)
星等 :
--
该卫星已列入 空间交会检测服务 Space Conjunction Data Service (SCDS) ,当前飞行风险评估等级: 无高风险
轨道信息
数据来源 国际轨道数据
星历时间: 2026-09-12T01:00:00+0800
18小时前
查看轨道信息
半长轴: 6861.199km
偏心率: 0.0001753
轨道倾角: 43.006°
近地点辐角 281.914°
升交点赤经 9.248°
平近点角 78.151°
近地点: 481.859km
远地点: 484.265km
周期: 94.267分钟
每日圈数: 15.275757
详细信息
固有亮度:
5
最大亮度:
2.5
卫星平台:
Starlink v1.5
覆盖范围:
全球
运营商:
太空探索技术公司
运营商所在国:
美国
制造商(研发单位):
太空探索技术公司
制造商所在国:
美国
使用方式:
暂无
卫星简介
星链(Starlink)计划是由太空探索技术公司(SpaceX)提出的一个巨型低轨卫星互联网星座项目,计划在2019年至2024年间在太空搭建由约1.2万颗卫星组成的“星链”网络,其中1584颗将部署在地球上空550千米处的近地轨道,并从2020年开始工作。该卫星仍在工作。
2D轨道图
3D轨道图
轨道高度分析图
轨道倾角分析图
轨道综合分析图
查看轨道综合分析图
与全量物体交会距离演化趋势
与全量物体交会风险概率演化趋势